Content
SEND FEEDBACK

Daily
Averages
Monthly
Summary
United States of America

CLARKSBURG, WEST VIRGINIA


Home > North America > United States > West Virginia
Elevation: 1209 feet     Latitude: 39 17N     Longitude: 080 13W

WEATHER
 
SELECT A DAY
Number of Records: 206,026;   Date Range: 1/1/95 - 12/24/14
 
SHARE

PRINT THIS DATA

[ ← Previous Day ]
WEATHER ALMANAC - JULY 13, 2014
[ Next Day → ]
[ °C ]   °F
Weather ElementAverageHighLow
Temperature74.1 °F89.1 °F (3:53 pm)68 °F (8:53 am)
Dewpoint65 °F69.8 °F (6:48 am)60.1 °F (12:53 pm)
Humidity75.6 %94 % (10:49 pm)45 % (3:53 pm)
Barometer29.99 in30.06 in (2:53 pm)29.91 in (7:00 am)
Wind Speed7 mph21.9 mph (5:18 pm)
Wind Gust28.8 mph (2:53 pm)
Weather ElementAverage
Visibility8 mi
Wind DirectionSSE (164.4 °)

Weather ElementTotal
Precipitation0.72 in
Cooling Degree Days13.6 (Base 65)
Growing Degree Days28.6 (Base 50)
Averaged from 32 records on July 13, 2014
WEATHER CONDITIONS BREAKOUT
WIND DIRECTION BREAKOUT
WEATHER BY HOUR - JULY 13, 2014
[ °C ]   °F
Local TimeTemperatureDewpointHumidityBarometerVisibilityWind DirectionWind SpeedGust SpeedPrecipitationEventsConditions
12:53 AM69.1 °F64.0 °F84 %30.06 in9.0 miSSE (160°)3.5 mphClear
1:53 AM68.0 °F63.0 °F84 %30.04 in9.0 miCalmClear
2:53 AM69.1 °F62.1 °F78 %30.04 in10.0 miCalmClear
3:53 AM70.0 °F62.1 °F76 %30.02 in10.0 miCalmClear
4:53 AM69.1 °F62.1 °F78 %30.01 in10.0 miCalmPartly Cloudy
5:53 AM71.1 °F61.0 °F70 %30.01 in10.0 miSouth (190°)3.5 mphOvercast
6:53 AM72.0 °F60.1 °F66 %30.01 in10.0 miSouth (190°)3.5 mphMostly Cloudy
7:53 AM73.0 °F61.0 °F66 %30.02 in10.0 miSSW (200°)4.6 mphMostly Cloudy
8:53 AM75.0 °F62.1 °F64 %30.02 in10.0 miSSW (210°)6.9 mphMostly Cloudy
9:53 AM79.0 °F62.1 °F56 %30.02 in10.0 miSW (220°)11.5 mphClear
10:53 AM82.0 °F63.0 °F52 %30.01 in10.0 miSW (220°)11.5 mph21.9 mphClear
11:53 AM84.9 °F64.0 °F49 %30.00 in10.0 miSW (220°)10.4 mphClear
12:53 PM84.9 °F64.0 °F49 %29.99 in10.0 miSW (230°)12.7 mph24.2 mphClear
1:53 PM84.9 °F64.9 °F51 %29.97 in10.0 miSSW (200°)11.5 mph0.00 inPartly Cloudy
2:53 PM87.1 °F64.9 °F48 %29.93 in10.0 miSW (220°)15.0 mphMostly Cloudy
3:53 PM89.1 °F64.9 °F45 %29.91 in10.0 miSW (220°)18.4 mph25.3 mphPartly Cloudy
4:53 PM84.9 °F64.0 °F49 %29.92 in10.0 miSW (230°)12.7 mphMostly Cloudy
5:37 PM75.0 °F63.0 °F66 %29.99 in10.0 miNW (310°)21.9 mph28.8 mph0.00 inOvercast
5:53 PM69.1 °F66.0 °F90 %29.95 in0.5 miNNW (330°)11.5 mph25.3 mph0.15 inFog-Rain-ThunderstormHeavy Thunderstorms and Rain
6:13 PM70.0 °F68.0 °F93 %29.99 in8.0 miSouth (190°)8.1 mph0.07 inRainLight Rain
6:53 PM71.1 °F68.0 °F90 %29.96 in2.0 miSW (230°)5.8 mph0.09 inRain-ThunderstormThunderstorms and Rain
7:00 PM71.1 °F68.0 °F90 %29.98 in3.0 miESE (120°)5.8 mph0.02 inRain-ThunderstormThunderstorms and Rain
7:15 PM71.1 °F68.0 °F90 %29.99 in8.0 miCalm0.03 inRainLight Rain
7:48 PM71.6 °F69.8 °F94 %30.01 in2.0 miWNW (290°)5.8 mph0.10 inRainHeavy Rain
7:53 PM71.1 °F69.1 °F93 %29.97 in2.0 miCalm0.12 inRainHeavy Rain
8:05 PM71.1 °F69.1 °F93 %30.01 in3.0 miSouth (170°)6.9 mph0.03 inRainRain
8:16 PM70.0 °F68.0 °F93 %30.00 in7.0 miSouth (170°)4.6 mph0.03 inRainLight Rain
8:53 PM70.0 °F66.9 °F90 %29.94 in8.0 miSSW (200°)6.9 mph0.04 inRainLight Rain
9:53 PM69.1 °F66.9 °F93 %29.93 in10.0 miSouth (180°)5.8 mph0.00 inMostly Cloudy
10:53 PM69.1 °F66.9 °F93 %29.96 in10.0 miSouth (170°)6.9 mphThunderstormOvercast
11:13 PM69.1 °F66.9 °F93 %30.00 in10.0 miVariable3.5 mph0.00 inRainLight Rain
11:53 PM69.1 °F66.9 °F93 %29.96 in4.0 miSouth (190°)4.6 mph0.04 inRainRain
Hourly data recorded from KCKB, located miles away from Clarksburg, West Virginia







STORIES FROM OUR PARTNERS